Regional Weather Roundup
Issued by NWS

Home | Current Version | Previous Version | Text Only | Print | Product List | Glossary On
Versions: 1 2 3 4 5 6 7 8 9 10 11 12 13 14 15 16 17 18 19 20 21 22 23 24 25 26 27 28 29 30 31 32 33 34 35 36 37 38 39 40 41 42 43 44 45 46 47 48 49 50
000
ASUS44 KFWD 020215
RWRTX
NORTH TEXAS HOURLY WEATHER ROUNDUP
NATIONAL WEATHER SERVICE FORT WORTH TX
900 PM CDT TUE SEP 01 2015

NOTE: "FAIR" INDICATES FEW OR NO CLOUDS BELOW 12,000 FEET WITH NO
SIGNIFICANT WEATHER AND/OR OBSTRUCTIONS TO VISIBILITY.

TXZ118-119-020300-
DALLAS/FORT WORTH METROPLEX

CITY           SKY/WX    TMP DP  RH WIND       PRES   REMARKS
DFW AIRPORT    PTCLDY    87  64  46 SE13      29.99R
DALLAS LOVE    PTCLDY    87  66  49 SE16      29.99R
FTW MEACHAM    CLEAR     89  65  44 SE10      29.98R HX  91
DAL-EXECUTIVE  CLEAR     85  65  51 SE17G23   30.00R
FTW-ALLIANCE   CLEAR     86  64  47 SE8       29.98R
FTW-NAS-JRB    PTCLDY    89  64  43 SE10      29.99R HX  90
FTW-SPINKS     PTCLDY    85  66  52 SE8       30.02R
ARLINGTON      CLEAR     88  65  46 SE12G22   30.00R HX  90
GRAND PRAIRIE  PTCLDY    86  68  54 SE9       30.01R
ADDISON        PTCLDY    88  63  42 E12       30.00R
MESQUITE       CLEAR     84  66  54 SE8       30.01R
LANCASTER      CLEAR     85  63  47 SE9       30.01R
$$

TXZ091>094-102>105-117-120-121-131>134-020300-
NORTH CENTRAL TEXAS

CITY           SKY/WX    TMP DP  RH WIND       PRES   REMARKS
SHRMAN/DENISON CLEAR     85  66  52 SE9       30.02R
GAINESVILLE    CLEAR     83  62  49 E6        30.02R
BOWIE          CLEAR     81  62  51 SE5       30.00R
BRIDGEPORT     CLEAR     81  65  57 SE6       30.00R
DECATUR        CLEAR     84  59  43 SE7       30.00R
DENTON         CLEAR     85  64  49 SE8       29.98R
MCKINNEY       CLEAR     84  65  52 SE7       30.00R
GREENVILLE     CLEAR     81  66  61 SE9       30.02R
ROCKWALL       CLEAR     83  68  59 SE10      30.00R
TERRELL        CLEAR     83  68  60 SE10      30.02R
WAXAHACHIE     CLEAR     84  68  59 SE7       30.01R
CLEBURNE         N/A     84  66  54 SE10      30.02R
GRANBURY       CLEAR     87  66  50 SE7       30.00R
$$

TXZ083>090-098>101-113>116-127>130-139>142-154-155-020300-
WESTERN NORTH TEXAS

CITY           SKY/WX    TMP DP  RH WIND       PRES   REMARKS
WICHITA FALLS  CLEAR     83  63  50 SE10      29.97R
WF-KICKAPOO    CLEAR     85  62  44 SE7       29.99R
VERNON         CLEAR     88  49  26 SE12      29.98R
ABILENE        CLEAR     84  59  42 SE10      30.00R
ABILENE-DYESS  CLEAR     86  62  44 SE9       29.99R
BRECKENRIDGE   CLEAR     85  59  41 SE7       29.98R
GRAHAM         CLEAR     84  65  51 SE3       29.97R
MINERAL WELLS  CLEAR     82  64  54 SE5       29.97R
STEPHENVILLE   CLEAR     82  65  55 SE6       30.03R
COMANCHE       CLEAR     82  64  54 SE7       30.00R
BROWNWOOD      CLEAR     81  63  54 SE7       30.00R
COLEMAN        CLEAR     82  60  47 NE5       30.00R
BRADY          CLEAR     86  63  45 SE8       30.00R
$$

TXZ143>147-156>162-174-175-020300-
CENTRAL TEXAS

CITY           SKY/WX    TMP DP  RH WIND       PRES   REMARKS
WACO           CLEAR     84  64  50 SE10      30.00R
WACO-MCGREGOR  CLEAR     83  67  58 SE14      30.00R
HILLSBORO      CLEAR     78  67  69 E9        30.01R
CORSICANA      CLEAR     83  67  58 SE8       30.02R
MEXIA          CLEAR     81  67  63 SE16      30.01R
HEARNE         CLEAR     78  68  70 SE6       30.02R
CAMERON        CLEAR     80  67  66 SE7       30.01R
TEMPLE         CLEAR     81  64  57 SE12      30.00R
KILLEEN        CLEAR     81  67  61 SE16      30.00R
KILLEEN-SKYLRK CLEAR     82  64  54 SE13      30.00R
FORT HOOD      CLEAR     82  67  60 SE17      30.00R
GATESVILLE     CLEAR     82  68  61 SE6       30.03R
HAMILTON       CLEAR     84  63  49 SE8       30.02R
$$

TXZ095>097-106>112-122>126-135>138-148>153-164>167-020300-
EAST TEXAS

CITY           SKY/WX    TMP DP  RH WIND       PRES   REMARKS
PARIS          CLEAR     81  61  50 SE13      30.03R
SULPHUR SPRNGS CLEAR     80  67  65 SE9       30.05R
MOUNT PLEASANT CLEAR     76  67  75 CALM      30.06R
MINEOLA        CLEAR     79  72  78 SE3       30.05R
TYLER          CLEAR     79  69  71 SE8       30.03R
LONGVIEW       PTCLDY    79  70  74 CALM      30.04R
MARSHALL       PTCLDY    78  73  84 CALM      30.06S
ATHENS         CLEAR     75  68  78 SE5       30.02R
PALESTINE      CLEAR     80  68  67 SE8       30.04R
JACKSONVILLE   CLEAR     78  68  71 S6        30.07R
HENDERSON      PTCLDY    77  71  83 CALM      30.06R
CENTER         FAIR      76  69  78 CALM      30.04S
NACOGDOCHES    MOCLDY    77  70  78 CALM      30.04R
LUFKIN         MOCLDY    76  70  82 CALM      30.04R
$$

SUPPLEMENTAL OBSERVATIONS (CENTRAL)

CITY           SKY/WX    TMP DP  RH WIND       PRES   REMARKS
LAKE TEXOMA      N/A     84  63  48 SE7         N/A
CADDO GRASSLND   N/A     82  63  51 S6          N/A
PAT MAYSE LAKE   N/A     82  66  57 SE9         N/A
ATHENS           N/A     79  70  73 SE7         N/A
LAKE LIMESTONE   N/A     81  68  65 SE6         N/A
MCGREGOR         N/A     82  64  54 SE10        N/A
TEMPLE           N/A     81  64  57 SE9         N/A
$$

SUPPLEMENTAL OBSERVATIONS (WEST)

CITY           SKY/WX    TMP DP  RH WIND       PRES   REMARKS
MILLERS CREEK    N/A     82  59  44 SE8         N/A
POSSUM KINGDOM   N/A     84  59  42 SE7         N/A
LBJ GRASSLAND    N/A     82  61  47 SE5         N/A
GRANBURY         N/A     88  66  48 SE9         N/A  HX  90
COMANCHE         N/A     82  59  44 SE9         N/A
HAMBY            N/A     82  57  42 SE7         N/A
IVIE RESERVOIR   N/A     84  54  34 E8          N/A
COLORADO BEND    N/A     82  61  47 S8          N/A
$$

SUPPLEMENTAL OBSERVATIONS (EAST)

CITY           SKY/WX    TMP DP  RH WIND       PRES   REMARKS
CLARKSVILLE      N/A     81  66  61 S6          N/A
TEXARKANA        N/A     75  70  83 CALM        N/A
LINDEN           N/A     79  70  73 CALM        N/A
CADDO LAKE       N/A     75  72  88 CALM        N/A
GILMER           N/A     73  70  88 CALM        N/A
HENDERSON        N/A     75  70  83 SW1         N/A
LUFKIN           N/A     75  72  88 MISG        N/A
N SABINE NF      N/A     73  68  83 MISG        N/A
S SABINE NF      N/A     70  66  88 S1          N/A
$$

SUPPLEMENTAL OBSERVATIONS ARE A COLLECTION OF AUTOMATED INSTRUMENTS
THAT ARE MAINTAINED BY A VARIETY OF FEDERAL AND STATE AGENCIES.
CERTAIN ELEMENTS...SUCH AS HUMIDITY VALUES AND SUSTAINED WIND
SPEEDS...MAY BE APPROXIMATED.



USA.gov is the U.S. government's official web portal to all federal, state and local government web resources and services.